Ignacio, CO

4:55 AM MST on December 06, 2016 (GMT -0700)
Durango-La Plata County

Weather History for KDRO - September, 2013

Change the Weather History Date:

Friday, September 13, 2013

  Actual Average Record
Temperature  
Mean Temperature 60 °F 60 °F  
Max Temperature 69 °F 76 °F 93 °F (1990)
Min Temperature 51 °F 43 °F 34 °F (1985)
Degree Days  
Heating Degree Days 5 5  
Month to date heating degree days 16 47  
Since 1 July heating degree days 29 76  
Cooling Degree Days 0 0  
Month to date cooling degree days 39 3  
Year to date cooling degree days 388 240  
Growing Degree Days 10 (Base 50)    
Moisture  
Dew Point 53 °F    
Average Humidity 82    
Maximum Humidity 100    
Minimum Humidity 63    
Precipitation  
Precipitation T in 0.07 in 0.62 in (1982)
Month to date precipitation 2.52 0.82  
Year to date precipitation 10.73 10.79  
Sea Level Pressure  
Sea Level Pressure 30.00 in    
Wind  
Wind Speed 5 mph (ESE)    
Max Wind Speed 18 mph    
Max Gust Speed 22 mph    
Visibility 10 miles    
Events Thunderstorm    
T = Trace of Precipitation, MM = Missing Value Source: NWS Daily Summary

Daily Weather History Graph

Daily Weather History Graph

Search for Another Location

Airport or City:

Trip Planner

Search our weather history database for the weather conditions in past years. The results will help you decide how hot, cold, wet, or windy it might be!

Date:

Astronomy

Sep. 13, 2013 Rise Set
Actual Time 6:51 AM MDT 7:21 PM MDT
Civil Twilight 6:25 AM MDT 7:47 PM MDT
Nautical Twilight 5:54 AM MDT 8:18 PM MDT
Astronomical Twilight 5:23 AM MDT 8:49 PM MDT
Moon 3:08 PM MDT (9/13) 12:30 AM MDT (9/13)
Length of Visible Light 13h 21m
Length of Day
12h 29m
Waxing Gibbous, 62% of the Moon is Illuminated
Sep 13
Waxing Gibbous
Sep 19
Full
Sep 26
Last Quarter
Oct 4
New
Oct 11
First Quarter

Hourly Weather History & Observations

Time (MDT) Temp. Dew Point Humidity Pressure Visibility Wind Dir Wind Speed Gust Speed Precip Events Conditions
12:53 AM 54.0 °F 54.0 °F 100% 30.01 in 10.0 mi SE 3.5 mph - 0.00 in   Mostly Cloudy
1:53 AM 55.0 °F 55.0 °F 100% 29.99 in 10.0 mi Calm Calm - N/A   Overcast
2:53 AM 54.0 °F 53.1 °F 97% 29.99 in 10.0 mi Calm Calm - N/A   Mostly Cloudy
3:53 AM 53.1 °F 52.0 °F 96% 30.00 in 10.0 mi ENE 4.6 mph - N/A   Scattered Clouds
4:53 AM 52.0 °F 51.1 °F 97% 30.04 in 10.0 mi ENE 3.5 mph - N/A   Clear
5:53 AM 54.0 °F 52.0 °F 93% 30.03 in 10.0 mi NNE 5.8 mph - N/A   Overcast
6:53 AM 52.0 °F 51.1 °F 97% 30.04 in 10.0 mi North 4.6 mph - N/A   Scattered Clouds
7:53 AM 54.0 °F 52.0 °F 93% 30.03 in 10.0 mi Calm Calm - N/A   Mostly Cloudy
8:18 AM 55.4 °F 51.8 °F 88% 30.20 in 10.0 mi North 4.6 mph - N/A   Overcast
8:53 AM 57.9 °F 53.1 °F 84% 30.01 in 10.0 mi Calm Calm - N/A   Overcast
9:00 AM 57.2 °F 53.6 °F 88% 30.20 in 10.0 mi Calm Calm - N/A   Overcast
9:53 AM 60.1 °F 53.1 °F 78% 30.01 in 10.0 mi East 3.5 mph - N/A   Scattered Clouds
10:53 AM 63.0 °F 54.0 °F 72% 30.01 in 10.0 mi SE 10.4 mph - N/A   Partly Cloudy
11:53 AM 64.0 °F 55.9 °F 75% 30.00 in 10.0 mi SE 11.5 mph - N/A   Partly Cloudy
12:53 PM 64.9 °F 55.0 °F 70% 29.98 in 10.0 mi East 8.1 mph - N/A   Partly Cloudy
1:53 PM 66.9 °F 54.0 °F 63% 29.94 in 10.0 mi ESE 4.6 mph - N/A   Mostly Cloudy
2:53 PM 66.9 °F 54.0 °F 63% 29.92 in 10.0 mi SE 9.2 mph - N/A   Overcast
3:53 PM 66.0 °F 52.0 °F 60% 29.91 in 10.0 mi SE 11.5 mph 20.7 mph 0.00 in Thunderstorm Thunderstorm
4:13 PM 69.8 °F 55.4 °F 60% 30.10 in 10.0 mi SE 8.1 mph - 0.00 in   Overcast
4:53 PM 66.0 °F 53.1 °F 63% 29.91 in 10.0 mi SE 13.8 mph 21.9 mph 0.00 in Thunderstorm Mostly Cloudy
5:10 PM 66.2 °F 53.6 °F 64% 30.11 in 10.0 mi SE 11.5 mph 20.7 mph N/A Thunderstorm Thunderstorm
5:53 PM 64.9 °F 53.1 °F 65% 29.91 in 10.0 mi South 5.8 mph - N/A Thunderstorm Partly Cloudy
6:10 PM 64.4 °F 53.6 °F 68% 30.10 in 10.0 mi South 5.8 mph - N/A   Partly Cloudy
6:53 PM 64.0 °F 52.0 °F 65% 29.91 in 10.0 mi South 5.8 mph - N/A   Clear
7:53 PM 62.1 °F 53.1 °F 72% 29.93 in 10.0 mi Calm Calm - N/A   Partly Cloudy
8:53 PM 60.1 °F 52.0 °F 75% 29.94 in 10.0 mi Calm Calm - N/A   Clear
9:53 PM 57.9 °F 54.0 °F 87% 29.96 in 10.0 mi Calm Calm - N/A   Partly Cloudy
10:53 PM 57.9 °F 53.1 °F 84% 29.94 in 10.0 mi ESE 3.5 mph - N/A   Scattered Clouds
11:53 PM 57.9 °F 53.1 °F 84% 29.94 in 10.0 mi East 4.6 mph - N/A   Mostly Cloudy